Content
SEND FEEDBACK

Daily
Averages
Monthly
Summary
United States of America

EARTH CITY, MISSOURI


Home > North America > United States > Missouri
Elevation: 476 feet     Latitude: 38 46N     Longitude: 090 30W

WEATHER
 
SELECT A DAY
Number of Records: 203,268;   Date Range: 1/1/95 - 7/7/14
 
SHARE

PRINT THIS DATA

[ ← Previous Day ]
WEATHER ALMANAC - MARCH 28, 2013
[ Next Day → ]
[ °C ]   °F
Weather ElementAverageHighLow
Temperature46.4 °F55.9 °F (3:51 pm)37 °F (2:51 am)
Dewpoint30.9 °F37 °F (6:51 pm)24.1 °F (7:51 am)
Humidity55.4 %65 % (2:51 am)42 % (4:51 pm)
Barometer30.32 in30.39 in (9:51 am)30.26 in (4:51 pm)
Wind Speed9.7 mph12.7 mph (9:51 am)
Wind Gust17.3 mph (2:51 pm)
Weather ElementAverage
Visibility10 mi
Wind DirectionESE (108.6 °)

Weather ElementTotal
Precipitation---
Heating Degree Days18.6 (Base 65)
Averaged from 22 records on March 28, 2013
WEATHER CONDITIONS BREAKOUT
WIND DIRECTION BREAKOUT
WEATHER BY HOUR - MARCH 28, 2013
[ °C ]   °F
Local TimeTemperatureDewpointHumidityBarometerVisibilityWind DirectionWind SpeedGust SpeedPrecipitationEventsConditions
1:51 AM37.9 °F26.1 °F62 %30.35 in10.0 miEast (100°)6.9 mph0.00 inOvercast
2:51 AM37.0 °F26.1 °F65 %30.35 in10.0 miEast (90°)5.8 mphMostly Cloudy
3:51 AM37.0 °F26.1 °F65 %30.35 in10.0 miEast (80°)6.9 mphOvercast
4:51 AM37.0 °F25.0 °F62 %30.35 in10.0 miEast (100°)6.9 mphOvercast
5:51 AM37.0 °F25.0 °F62 %30.36 in10.0 miEast (100°)9.2 mphOvercast
6:51 AM37.0 °F25.0 °F62 %30.37 in10.0 miESE (110°)9.2 mphMostly Cloudy
7:51 AM37.9 °F24.1 °F57 %30.38 in10.0 miESE (110°)9.2 mphMostly Cloudy
8:51 AM41.0 °F25.0 °F53 %30.38 in10.0 miESE (110°)10.4 mphScattered Clouds
9:51 AM43.0 °F26.1 °F51 %30.39 in10.0 miESE (120°)12.7 mphMostly Cloudy
11:51 AM48.0 °F30.0 °F50 %30.37 in10.0 miESE (110°)12.7 mphMostly Cloudy
12:51 PM50.0 °F30.0 °F46 %30.35 in10.0 miESE (120°)10.4 mphScattered Clouds
1:51 PM54.0 °F33.1 °F45 %30.33 in10.0 miESE (120°)11.5 mphMostly Cloudy
2:51 PM55.0 °F33.1 °F43 %30.30 in10.0 miESE (110°)8.1 mph17.3 mphMostly Cloudy
3:51 PM55.9 °F34.0 °F44 %30.28 in10.0 miSE (140°)9.2 mphMostly Cloudy
4:51 PM55.9 °F33.1 °F42 %30.26 in10.0 miSE (130°)11.5 mphMostly Cloudy
5:51 PM55.0 °F35.1 °F47 %30.26 in10.0 miESE (110°)9.2 mphMostly Cloudy
6:51 PM53.1 °F37.0 °F55 %30.26 in10.0 miEast (90°)12.7 mphMostly Cloudy
7:51 PM52.0 °F37.0 °F57 %30.27 in10.0 miEast (90°)10.4 mphMostly Cloudy
8:51 PM50.0 °F37.0 °F61 %30.27 in10.0 miEast (100°)11.5 mph0.00 inMostly Cloudy
9:51 PM50.0 °F37.0 °F61 %30.27 in10.0 miESE (110°)10.4 mphMostly Cloudy
10:51 PM48.9 °F37.0 °F64 %30.27 in10.0 miESE (120°)10.4 mphMostly Cloudy
11:51 PM48.9 °F37.0 °F64 %30.26 in10.0 miESE (120°)8.1 mphOvercast
Hourly data recorded from KSTL, located miles away from Earth City, Missouri







STORIES FROM OUR PARTNERS